Location: Mohawk View
(42.7837°N, 73.7885°W)
Time: 08:32:19
(UTC+00:00)

Nadezhda 4 Rocket - Pass Details

Date: 17 June 2021
Orbit: 950 x 992 km, 82.9° (Epoch: 28 July)

Event Time Altitude Azimuth Distance (km) Brightness Sun altitude
Exits shadow 06:17:11 35° 169° (S) 1,502 4.5 -21.2°
Maximum altitude 06:19:54 72° 94° (E) 1,007 4.0 -21.1°
Drops below altitude 10° 06:26:00 10° 12° (NNE) 2,688 7.5 -20.7°
Sets 06:28:30 0° 10° (N) 3,635 8.4 -20.5°
